Leominster, MA

10:11 PM EST on January 22, 2017 (GMT -0500)
Fitchburg Municipal

Weather History for KFIT - August, 2013

Change the Weather History Date:

Sunday, August 18, 2013

  Actual Average (KORH) Record (KORH)
Temperature  
Mean Temperature 69 °F -  
Max Temperature 79 °F 76 °F 91 °F (1935)
Min Temperature 59 °F 59 °F 45 °F (1941)
Cooling Degree Days 4    
Growing Degree Days 19 (Base 50)    
Moisture  
Dew Point 59 °F    
Average Humidity 71    
Maximum Humidity 90    
Minimum Humidity 48    
Precipitation  
Precipitation 0.00 in - - ()
Sea Level Pressure  
Sea Level Pressure 30.22 in    
Wind  
Wind Speed 2 mph (SSW)    
Max Wind Speed 8 mph    
Max Gust Speed -    
Visibility 10 miles    
Events      
Averages and records for this station are not official NWS values.
T = Trace of Precipitation, MM = Missing Value Source: NWS Daily Summary

Daily Weather History Graph

Daily Weather History Graph

Search for Another Location

Airport or City:

Trip Planner

Search our weather history database for the weather conditions in past years. The results will help you decide how hot, cold, wet, or windy it might be!

Date:

Astronomy

Aug. 18, 2013 Rise Set
Actual Time 5:57 AM EDT 7:43 PM EDT
Civil Twilight 5:27 AM EDT 8:13 PM EDT
Nautical Twilight 4:50 AM EDT 8:50 PM EDT
Astronomical Twilight 4:10 AM EDT 9:29 PM EDT
Moon 5:48 PM EDT (8/18) 3:01 AM EDT (8/18)
Length of Visible Light 14h 46m
Length of Day
13h 46m
Waxing Gibbous, 92% of the Moon is Illuminated
Aug 18
Waxing Gibbous
Aug 20
Full
Aug 28
Last Quarter
Sep 5
New
Sep 12
First Quarter

Hourly Weather History & Observations

Time (EDT) Temp. Dew Point Humidity Pressure Visibility Wind Dir Wind Speed Gust Speed Precip Events Conditions
12:52 AM 62.1 °F 59.0 °F 90% 30.28 in 10.0 mi Calm Calm - N/A   Clear
1:52 AM 62.1 °F 57.9 °F 86% 30.27 in 10.0 mi Calm Calm - N/A   Partly Cloudy
2:52 AM 62.1 °F 57.9 °F 86% 30.27 in 10.0 mi Calm Calm - N/A   Clear
3:52 AM 60.1 °F 57.0 °F 90% 30.28 in 10.0 mi Calm Calm - N/A   Clear
4:52 AM 62.1 °F 57.0 °F 84% 30.27 in 10.0 mi Calm Calm - N/A   Clear
5:52 AM 59.0 °F 55.9 °F 90% 30.28 in 10.0 mi Calm Calm - N/A   Clear
6:52 AM 60.1 °F 57.0 °F 90% 30.29 in 10.0 mi Calm Calm - N/A   Clear
7:52 AM 66.0 °F 59.0 °F 78% 30.29 in 10.0 mi Calm Calm - N/A   Clear
8:52 AM 68.0 °F 59.0 °F 73% 30.28 in 10.0 mi SSE 3.5 mph - N/A   Clear
9:52 AM 72.0 °F 57.9 °F 61% 30.27 in 10.0 mi SSE 3.5 mph - N/A   Clear
10:52 AM 75.9 °F 60.1 °F 58% 30.27 in 10.0 mi Variable 3.5 mph - N/A   Clear
11:52 AM 79.0 °F 57.9 °F 48% 30.25 in 10.0 mi SE 4.6 mph - N/A   Partly Cloudy
12:52 PM 79.0 °F 57.9 °F 48% 30.25 in 10.0 mi SW 8.1 mph - N/A   Clear
1:52 PM 77.0 °F 60.1 °F 56% 30.23 in 10.0 mi SSW 5.8 mph - N/A   Clear
2:52 PM 78.1 °F 59.0 °F 52% 30.21 in 10.0 mi SW 5.8 mph - N/A   Clear
3:52 PM 78.1 °F 57.9 °F 50% 30.18 in 10.0 mi SW 4.6 mph - N/A   Clear
4:52 PM 75.9 °F 57.9 °F 54% 30.16 in 10.0 mi SW 3.5 mph - N/A   Clear
5:52 PM 75.0 °F 60.1 °F 60% 30.16 in 10.0 mi SW 4.6 mph - N/A   Clear
6:52 PM 73.9 °F 61.0 °F 64% 30.14 in 10.0 mi SSW 4.6 mph - N/A   Partly Cloudy
7:52 PM 71.1 °F 61.0 °F 70% 30.14 in 10.0 mi WSW 4.6 mph - N/A   Clear
8:52 PM 68.0 °F 62.1 °F 81% 30.14 in 10.0 mi North 3.5 mph - N/A   Clear
9:52 PM 68.0 °F 62.1 °F 81% 30.13 in 10.0 mi Calm Calm - N/A   Clear
10:52 PM 66.0 °F 62.1 °F 87% 30.11 in 10.0 mi Calm Calm - N/A   Clear
11:52 PM 68.0 °F 60.1 °F 76% 30.10 in 10.0 mi Calm Calm - N/A   Clear